Simultaneous Nadir Overpasses (SNOs) Predictions

Prediction of SNOs between GOES-16 and NOAA-19 Satellite Orbit:

Table of predicted SNOs for the next 14.0 days since TLE Epoch: 11/13/2020
Index Date Time (GOES-16) GOES-16 Lat,Lon NOAA-19 Lat,Lon Distance(km) Time Diff (sec)
1 11/14/2020 23:34:23 0.04, -75.15 -0.88, -79.06 447.73 80
2 11/15/2020 23:22:40 0.03, -75.12 -0.22, -76.20 123.52 80
3 11/16/2020 23:13:38 0.03, -75.10 0.44, -73.34 200.78 80
4 11/19/2020 11:34:29 -0.02, -75.07 0.75, -78.26 365.24 80
5 11/20/2020 11:22:47 -0.02, -75.05 0.04, -75.41 40.71 80
6 11/21/2020 11:08:25 -0.01, -75.04 -0.60, -72.55 284.18 80
7 11/23/2020 23:29:24 0.01, -74.99 -0.55, -77.52 287.87 80
8 11/24/2020 23:20:21 0.01, -74.98 0.06, -74.64 37.99 80
9 11/25/2020 23:08:39 0.01, -74.97 0.73, -71.78 363.80 80
